Regional Weather Roundup
Issued by NWS

Home | Current Version | Previous Version | Text Only | Print | Product List | Glossary On
Versions: 1 2 3 4 5 6 7 8 9 10 11 12 13 14 15 16 17 18 19 20 21 22 23 24 25 26 27 28 29 30 31 32 33 34 35 36 37 38 39 40 41 42 43 44 45 46 47 48 49 50
000
ASUS46 KSTO 211915
RWRCA

NORTHERN AND CENTRAL CA REGIONAL WEATHER ROUNDUP
NATIONAL WEATHER SERVICE SACRAMENTO CA
1200 PM PDT THU SEP 21 2017

NOTE: FAIR INDICATES FEW OR NO CLOUDS BELOW 12,000 FEET WITH NO
SIGNIFICANT WEATHER AND/OR OBSTRUCTIONS TO VISIBILITY.

CAZ001-003-212000-
NORTHWEST AREA

CITY           SKY/WX    TMP DP  RH WIND       PRES   REMARKS
CRESCENT CITY  PTSUNNY   58  50  75 SW3       29.98S
UKIAH          SUNNY     64  41  42 NW10G16   29.90F
$$

CAZ006-505>513-212000-
BAY AREA

CITY           SKY/WX    TMP DP  RH WIND       PRES   REMARKS
SANTA ROSA     MOSUNNY   69  39  33 N13       29.87F
SAN RAFAEL     N/A       64  MM  MM MISG
NAPA           MOSUNNY   67  41  38 VRB6      29.89S
CONCORD        MOSUNNY   66  43  43 NW8       29.90S
OAKLAND CITY   N/A      MM  MM  MM MISG
OAKLAND        MOSUNNY   65  44  46 W8        29.90F
SAN FRAN CITY  N/A       63  MM  49 MISG
SAN FRAN ARPT  MOSUNNY   65  45  48 W18       29.90S
LIVERMORE      SUNNY     68  43  40 W10       29.89S
HAYWARD        MOSUNNY   65  43  44 W14       29.91R
REDWOOD CITY   N/A       64  MM  51 MISG
MOFFETT ARPT   SUNNY     66  43  43 NW13G18   29.92R
SAN JOSE ARPT  MOSUNNY   68  46  45 W12       29.91S
$$
CAZ034-037-514>518-212000-
CENTRAL COAST

CITY           SKY/WX    TMP DP  RH WIND       PRES   REMARKS
WATSONVILLE    SUNNY     69  48  47 SW14G24   29.91F
SALINAS        SUNNY     66  48  52 W18       29.93S
MONTEREY       MOSUNNY   65  49  56 W18G25    29.96S
SAN LUIS OBISP MOSUNNY   70  49  47 NW20      29.91S
SANTA MARIA    MOSUNNY   68  52  56 W18       29.91F
$$
CAZ015-016-212000-
NORTHERN SACRAMENTO VALLEY

CITY           SKY/WX    TMP DP  RH WIND       PRES   REMARKS
REDDING        SUNNY     69  33  26 N14G22    29.84F
RED BLUFF      SUNNY     69  34  27 N10       29.85F
OROVILLE       SUNNY     67  45  45 S8        29.86S
$$
CAZ016>018-212000-
SOUTHERN SACRAMENTO VALLEY

CITY           SKY/WX    TMP DP  RH WIND       PRES   REMARKS
AUBURN         SUNNY     63  63 100 SW6       29.86F
BEALE AFB      SUNNY     67  43  41 W12       29.83F
LINCOLN        FAIR      64  36  34 SW6       29.85F
MARYSVILLE     SUNNY     67  41  38 CALM      29.86S
SAC INTL ARPT  MOSUNNY   68  37  32 W12       29.86S
MATHER AIRPORT MOSUNNY   66  37  34 NW8       29.87S
DOWNTOWN SAC   N/A       69  MM  MM MISG
SAC EXEC ARPT  SUNNY     67  38  34 VRB5      29.87F
VACAVILLE      CLOUDY    69  41  36 S7        29.89R
TRAVIS AFB     MOSUNNY   68  40  36 SW6       29.87R
$$
CAZ019>021-212000-
SAN JOAQUIN VALLEY

CITY           SKY/WX    TMP DP  RH WIND       PRES   REMARKS
STOCKTON       MOSUNNY   68  43  40 VRB7      29.88S
MODESTO        SUNNY     69  42  37 NW13      29.88S
MERCED         SUNNY     67  42  40 VRB3      29.88F
LEMOORE        MOSUNNY   71  41  33 NW9       29.90F
FRESNO         PTSUNNY   65  46  50 W7        29.91S
HANFORD        SUNNY     67  46  47 NW6       29.91F
PORTERVILLE      N/A     63  53  70 VRB3      29.92F
BAKERSFIELD    PTSUNNY   65  48  54 VRB5      29.91F
$$
CAZ011-012-071-212000-
NORTHERN MOUNTAINS

CITY           SKY/WX    TMP DP  RH WIND       PRES   REMARKS
YREKA            N/A    N/A N/A N/A N9        29.94F
MOUNT SHASTA   PTSUNNY   52  35  52 VRB6      29.91F
ALTURAS        MOSUNNY   46  35  65 SE3       29.88F
$$
CAZ011-012-071-212000-
SIERRA NEVADA MTNS

CITY           SKY/WX    TMP DP  RH WIND       PRES   REMARKS
BLUE CANYON    LGT RAIN  41  39  93 SW5       29.88S
TRUCKEE          N/A     39  36  87 MISG      29.87F
TAHOE VLY ARPT LGT RAIN  40  31  70 VRB3      29.85R
MAMMOTH LAKES  FAIR      48  14  25 SW15G24   29.84F
$$



USA.gov is the U.S. government's official web portal to all federal, state and local government web resources and services.